Simultaneous Nadir Overpasses (SNOs) Predictions

Prediction of SNOs between NOAA-19 and NPP Satellite Orbit:

Table of predicted SNOs for the next 14.0 days since TLE Epoch: 2/19/2016
Index Date (NOAA-19) Time (NOAA-19) Lat,Lon (NOAA-19) SZA (NOAA-19 ) Date (NPP) Time (NPP) Lat,Lon (NPP) SZA (NPP ) Distance(km) Time Diff (sec)
1 02/20/2016 16:39:44 81.02,-123.06 95.89 02/20/2016 16:40:47 81.02,-123.18 95.87 2.10 63
2 02/20/2016 17:30:40 -81.02, 44.13 84.11 02/20/2016 17:31:32 -81.02, 44.03 84.13 1.79 52
3 02/20/2016 18:21:46 81.02,-148.49 95.86 02/20/2016 18:22:17 81.02,-148.63 95.86 2.45 31
4 02/20/2016 19:12:42 -81.02, 18.71 84.15 02/20/2016 19:13:02 -81.02, 18.58 84.14 2.17 20
5 02/20/2016 20:03:48 81.02,-173.91 95.82 02/20/2016 20:03:47 81.02,-174.07 95.84 2.84 1
6 02/20/2016
